Wind_Speed
42 39 38 42 46 49 49 49 47 46 46 45 45 45 44 43 40 43 45 46 50 41 30 32 31 28 30 30 33 37 39 40 41 45 47 47 47 47 48 48 48 48 48 49 49 48 46 44 42 38 37 39 41 40 40 40 41 41 42 42 43 43 43 43 44 45 46 48 50 53 56 60 61 61 61 61 62 62 61 61 60 60 60 60 59 59
43 40 40 44 47 48 48 49 49 48 48 46 46 45 43 43 41 43 46 47 51 43 31 34 33 29 31 31 32 36 38 41 43 44 47 49 49 49 50 50 49 48 49 50 50 50 49 48 47 44 43 43 43 43 42 42 42 41 41 42 43 43 44 45 45 45 46 47 47 47 50 53 57 60 63 64 64 64 63 64 64 64 63 62 62 61
45 43 45 48 48 48 49 50 52 50 50 48 48 47 43 44 43 42 45 47 49 44 37 38 33 28 31 31 32 36 38 43 46 44 44 47 50 51 52 52 50 49 49 50 50 50 50 51 50 49 48 46 46 46 45 44 43 42 42 43 43 43 44 45 46 47 47 48 47 47 47 48 51 55 59 62 65 65 66 66 66 66 66 65 65 64
48 48 51 52 51 51 52 53 55 54 52 51 53 52 47 48 48 42 42 46 47 45 41 39 35 30 31 31 31 35 40 44 47 45 42 44 49 52 55 55 54 52 52 52 52 53 52 52 51 51 51 50 50 49 49 48 46 46 46 46 46 46 46 46 46 48 49 49 48 48 48 47 48 50 53 57 61 64 65 66 67 67 67 66 66 66
52 54 56 56 56 55 55 56 58 58 55 54 56 57 53 52 53 47 44 44 44 45 45 42 38 32 31 32 29 33 42 46 46 46 45 46 49 52 55 58 58 57 57 56 55 55 56 55 54 53 53 52 52 53 53 52 52 51 50 50 50 50 51 51 50 50 50 51 50 49 49 48 48 49 50 52 55 57 59 61 62 63 64 64 65 65
55 60 60 59 59 59 58 59 63 63 57 55 57 58 56 55 55 53 51 48 45 46 47 46 42 35 33 34 32 35 42 46 47 47 47 50 52 53 55 58 62 62 61 60 59 57 57 58 57 57 56 55 55 54 54 55 55 55 54 54 54 54 54 55 55 54 53 52 52 51 51 51 51 51 52 53 54 54 54 55 56 57 58 59 61 62
57 63 63 61 61 61 62 63 67 67 60 57 59 62 60 57 56 56 55 54 50 48 49 50 49 42 35 35 38 39 42 45 47 48 49 52 55 56 57 58 61 63 62 61 60 59 58 57 58 59 59 58 57 55 55 56 57 57 57 57 57 56 56 55 55 55 56 55 54 54 54 54 54 55 56 56 55 55 55 55 55 56 56 57 58 59
62 66 66 65 65 64 65 67 68 69 65 61 64 66 65 64 62 59 57 56 52 50 49 50 54 50 40 37 43 44 44 46 48 51 51 53 58 60 60 59 58 59 60 59 59 60 60 58 59 59 60 60 58 57 57 57 58 58 58 59 58 58 57 57 56 55 56 56 56 56 56 56 57 58 59 59 58 57 57 57 57 57 58 59 59 59
68 69 69 70 70 69 70 72 71 71 70 68 68 68 68 69 68 66 64 60 58 53 48 49 55 55 43 37 43 45 46 48 49 52 52 52 59 61 60 60 58 56 57 58 59 61 63 62 62 62 62 62 61 59 59 59 58 58 59 60 60 60 59 59 58 58 57 57 57 58 59 60 61 60 60 60 60 60 60 60 59 60 60 61 61 62
72 71 71 72 73 75 75 76 76 77 76 74 74 72 72 73 72 73 71 68 68 60 52 55 61 62 47 36 41 42 42 48 50 52 51 51 57 60 59 58 58 58 58 60 62 65 68 67 67 67 66 65 63 62 61 60 59 59 60 61 62 62 61 61 61 61 61 60 59 59 60 61 63 63 62 62 62 62 63 63 63 63 63 63 63 64
76 75 74 75 77 79 79 80 80 81 82 81 80 78 78 78 77 78 76 76 76 67 63 66 71 72 54 37 44 48 47 54 56 57 56 54 57 60 61 62 62 64 64 64 66 69 73 74 74 74 72 70 67 66 65 63 61 62 62 63 64 64 63 62 63 63 64 63 63 62 61 61 62 63 64 64 65 64 64 65 65 65 65 64 64 64
79 78 79 79 81 82 82 83 84 85 86 85 85 84 84 84 83 84 82 83 83 76 74 77 79 81 61 43 53 61 61 65 65 65 66 64 63 63 65 66 67 69 71 71 72 73 76 78 79 79 76 74 72 70 70 67 66 65 66 67 67 67 66 65 65 66 67 67 67 66 65 64 64 64 65 66 67 67 67 67 67 67 67 66 66 66
81 81 83 84 84 85 86 87 88 88 89 89 90 89 89 88 87 89 89 90 90 85 83 85 87 85 68 58 66 70 70 74 73 72 71 70 70 71 72 73 73 73 74 76 77 79 81 81 81 81 79 79 78 77 76 74 72 70 70 71 71 72 71 70 70 70 70 70 70 70 69 68 67 67 68 69 69 70 70 70 69 69 70 70 71 71
83 83 85 87 87 87 89 91 92 92 92 93 93 94 94 93 93 95 95 95 95 93 93 94 94 88 75 70 77 79 79 80 79 80 78 74 74 74 77 79 79 78 77 78 79 82 84 83 82 83 82 82 82 82 82 81 79 77 76 77 77 78 78 77 75 73 73 72 72 73 73 72 71 70 71 71 72 73 73 73 73 73 74 74 75 76
87 85 85 89 90 89 91 93 95 96 96 96 96 97 97 96 98 101 103 102 101 100 101 101 100 95 86 83 84 85 85 85 85 84 81 80 79 80 82 84 85 84 83 84 86 88 89 87 85 84 85 86 85 85 85 85 85 84 83 82 82 82 82 82 81 79 78 77 76 76 76 76 75 74 74 74 74 74 75 75 75 75 75 76 77 78
93 88 86 90 92 92 93 95 97 99 99 98 98 98 98 99 102 107 108 107 106 108 108 107 106 103 98 94 92 90 90 91 92 89 87 87 87 87 89 90 92 91 90 91 94 96 96 93 91 89 88 89 90 90 89 87 87 87 87 86 86 86 86 85 84 84 83 83 82 81 80 79 78 77 77 77 77 77 76 76 75 76 76 77 77 78
97 93 90 92 95 95 96 97 99 100 101 101 100 100 101 103 106 109 111 112 113 116 116 114 112 110 107 103 98 94 94 96 97 98 99 100 99 98 98 97 96 95 95 96 99 101 100 98 97 96 94 92 92 94 94 92 92 91 90 89 88 88 88 88 88 88 88 89 89 88 87 87 85 84 83 82 81 80 79 78 78 78 79 79 80 80
103 100 94 93 96 99 99 99 100 100 102 104 104 104 105 107 108 110 113 115 117 120 121 120 118 116 115 112 104 100 102 103 105 107 107 107 108 108 108 106 103 100 99 100 102 104 103 101 99 99 99 97 95 94 96 97 98 97 96 95 93 91 89 89 91 93 94 95 95 95 94 94 93 92 91 89 87 84 83 82 83 83 83 83 83 83
108 107 102 97 97 101 102 101 101 101 103 106 108 108 109 111 112 113 115 117 119 123 124 123 122 119 118 115 110 108 108 108 109 111 111 112 113 113 113 112 110 108 106 106 106 105 104 104 103 102 103 103 100 98 98 99 101 102 102 100 99 99 97 95 94 95 98 99 100 100 100 99 98 96 95 94 92 91 89 89 89 89 89 89 88 87
112 114 111 103 101 105 107 105 103 102 105 109 111 112 113 114 115 117 119 121 123 126 127 128 128 127 124 120 117 114 110 107 108 111 113 115 116 117 117 116 116 116 114 113 111 109 107 106 105 105 107 107 106 105 104 104 105 107 108 107 106 106 106 105 103 102 103 104 105 105 104 104 103 102 101 100 98 97 97 97 96 95 95 96 95 93
115 118 117 112 110 112 112 110 107 108 110 113 115 115 115 116 118 121 124 125 126 129 132 135 137 137 133 128 124 120 115 113 114 115 117 119 120 121 122 123 124 123 120 117 115 112 110 109 109 110 111 113 112 112 113 113 112 112 113 114 115 114 113 112 112 111 111 111 111 110 109 108 107 106 106 105 104 104 103 103 103 103 103 102 101 100
120 122 123 122 120 119 117 116 116 117 117 118 119 120 120 122 125 129 131 131 132 134 138 142 144 144 141 136 131 128 125 123 122 122 123 123 125 126 128 128 128 126 123 119 116 113 111 113 116 117 117 117 116 115 116 117 119 119 119 119 119 119 119 118 117 116 116 117 117 116 115 113 111 110 109 108 108 108 108 107 107 108 109 108 107 106
127 130 131 131 130 127 125 124 124 125 125 126 127 127 129 130 133 136 138 138 139 141 143 147 150 150 149 144 140 137 133 130 129 129 128 127 127 128 128 128 127 126 124 120 117 114 113 114 116 118 119 119 118 118 117 117 118 120 122 122 122 122 123 122 121 120 119 119 119 119 118 117 116 114 113 112 113 113 113 112 112 112 112 112 112 111
134 137 138 137 137 136 134 131 129 129 130 132 133 134 135 137 139 142 144 145 147 148 149 151 154 154 152 147 143 140 136 131 131 132 131 129 127 126 126 126 126 126 125 122 120 116 115 115 116 117 119 120 120 120 120 119 117 117 119 120 121 122 122 122 122 121 120 120 119 119 118 118 119 118 117 116 117 119 120 119 118 117 116 115 115 115
141 142 143 143 143 142 140 138 136 135 137 139 141 142 142 144 146 147 149 151 153 154 155 155 155 154 149 145 142 139 135 131 130 130 130 128 127 126 126 126 126 125 125 123 122 119 117 116 116 117 118 118 118 118 118 117 116 115 115 116 118 118 119 118 118 117 117 117 117 116 117 118 119 120 121 120 121 123 124 124 123 122 120 120 119 120
148 149 150 150 151 151 149 148 147 146 147 149 149 150 149 149 150 150 152 154 154 154 153 153 151 148 143 140 138 136 135 133 130 129 127 127 127 127 126 125 125 125 124 123 121 119 118 117 117 117 117 117 116 114 113 113 112 112 113 113 114 115 115 115 114 112 112 112 112 112 113 114 116 119 121 123 124 125 126 127 127 126 125 124 124 124
154 155 156 156 156 157 156 154 153 153 153 154 153 151 150 149 149 149 150 151 149 146 145 144 142 140 137 135 134 134 134 133 132 129 126 125 125 125 124 124 123 123 123 122 120 118 117 116 116 116 115 114 112 109 108 108 109 109 110 111 112 113 112 112 111 110 108 107 107 108 110 112 114 116 119 122 124 125 127 129 129 129 128 127 127 127
154 155 155 154 153 153 152 150 149 148 149 149 148 146 144 143 142 142 141 139 138 138 137 135 132 132 132 132 131 131 130 129 129 128 126 124 123 121 121 120 119 119 119 118 117 116 115 115 114 113 111 109 106 104 103 103 104 106 107 108 109 111 111 110 109 108 107 105 104 105 107 111 113 115 116 118 120 122 124 127 128 128 127 126 127 128
146 145 145 144 143 143 142 140 139 138 138 139 138 137 135 134 132 130 128 127 128 130 130 127 126 126 127 127 126 125 124 124 124 123 122 121 119 117 116 114 114 113 113 113 112 112 111 111 110 109 107 105 103 101 100 100 100 101 102 104 106 107 109 109 108 107 106 105 104 104 105 108 110 112 113 114 114 115 117 120 123 124 124 124 124 124
136 135 134 133 133 133 132 131 129 130 129 129 129 128 126 124 121 119 118 119 120 122 121 120 121 122 122 122 120 118 118 118 118 117 116 115 114 113 112 110 109 108 108 107 106 106 105 105 104 103 102 101 101 100 99 99 98 98 98 99 101 102 104 106 107 106 104 103 102 103 103 104 106 107 109 110 109 109 110 112 115 118 120 122 122 121
128 128 126 125 125 125 122 121 122 123 124 123 122 120 119 117 115 114 114 114 115 115 115 114 115 117 117 117 115 114 113 113 112 112 111 111 111 110 109 108 107 106 105 104 103 102 101 100 99 99 99 99 99 99 98 98 98 98 98 98 98 99 100 101 103 104 103 101 100 100 101 102 103 104 105 106 107 106 106 107 109 111 114 117 119 119
123 123 122 122 122 120 116 116 119 121 121 121 117 113 112 113 113 112 111 111 111 111 110 110 111 112 112 112 113 113 111 110 110 109 108 108 108 108 108 108 107 106 105 103 103 102 100 98 97 97 99 99 99 98 98 98 98 99 99 100 100 100 99 99 99 100 101 101 100 99 99 100 101 103 104 105 106 105 105 105 105 106 108 111 114 116
120 121 121 121 122 119 114 114 118 120 120 115 109 108 110 111 109 108 108 108 108 108 108 108 109 109 109 110 111 111 111 111 111 110 108 108 108 107 107 107 107 106 105 103 103 102 101 99 96 96 97 98 98 97 97 97 98 98 100 101 101 102 101 101 100 100 100 100 101 100 100 100 101 102 104 106 106 106 104 103 103 104 105 107 109 111
119 120 120 121 122 118 113 113 118 120 116 109 106 108 110 108 105 105 106 106 106 106 106 106 107 107 108 108 109 109 110 111 111 111 110 109 108 108 107 107 107 106 105 104 103 102 101 100 97 96 96 96 96 96 96 96 96 97 98 100 101 102 103 103 103 102 102 101 101 101 102 103 103 103 105 106 107 107 104 103 102 103 104 105 106 107
118 118 119 119 120 118 114 114 117 117 112 108 108 108 107 106 106 106 106 105 105 105 105 105 106 107 107 108 108 107 107 108 109 109 109 109 108 107 107 107 107 107 106 106 105 104 102 101 100 98 97 97 97 96 95 94 94 94 95 97 99 100 102 103 104 104 104 103 103 103 104 105 106 106 107 108 108 108 106 104 103 104 104 104 104 104
117 117 118 118 118 117 115 114 116 114 111 109 109 107 106 107 108 108 108 108 106 104 104 105 106 107 108 108 107 106 106 106 106 108 108 108 108 107 106 106 106 106 106 106 106 106 105 103 102 101 100 99 99 99 97 95 93 93 93 95 96 97 99 101 102 103 104 104 104 105 105 107 108 109 110 110 110 108 107 106 105 106 106 106 105 105
116 116 117 117 116 115 115 114 113 112 111 109 107 107 107 108 108 108 110 109 106 104 105 106 107 108 108 108 107 107 106 105 105 106 108 108 108 108 107 107 107 107 106 106 106 107 107 106 104 103 102 101 101 101 101 99 96 94 93 94 95 96 97 99 101 102 103 103 104 105 106 108 110 111 112 113 112 110 108 106 106 107 107 108 108 108
114 114 115 116 115 114 114 114 112 111 109 107 106 107 108 108 108 108 110 109 106 105 106 108 108 107 107 107 107 107 107 106 105 106 108 109 109 109 109 108 108 108 108 107 107 106 107 107 107 106 105 104 103 103 103 102 100 98 96 95 96 97 98 99 100 101 101 102 103 105 106 108 110 112 114 114 113 111 109 107 107 106 107 108 109 110
110 111 113 114 114 113 113 113 112 110 108 106 106 107 108 109 108 109 110 108 105 106 109 110 109 108 107 107 107 106 106 106 105 105 108 110 110 110 110 109 109 109 108 108 107 106 105 106 106 106 107 106 105 104 104 102 101 101 99 98 98 98 99 99 100 100 100 100 102 104 106 107 109 111 113 113 112 111 109 108 107 106 106 107 108 109
107 108 110 112 112 112 112 113 111 109 107 106 107 108 109 109 109 109 110 108 106 108 110 110 109 108 108 107 106 106 106 106 105 105 106 108 110 111 111 110 109 108 108 108 107 106 105 104 103 104 105 106 107 107 106 104 102 101 101 101 100 100 100 100 100 100 99 99 100 102 104 106 107 109 111 112 111 110 108 108 108 107 107 107 107 108
104 106 108 110 110 110 111 112 111 109 106 105 107 110 110 110 109 109 109 108 108 109 109 107 107 107 106 106 105 105 105 105 105 104 103 104 107 109 111 111 110 109 108 108 107 106 105 103 102 101 100 102 103 105 106 106 105 103 101 101 101 101 101 101 100 100 99 99 99 101 103 104 105 106 108 110 111 109 107 107 107 107 107 107 107 107
102 104 107 108 108 109 110 111 111 107 103 103 107 110 110 110 110 109 108 108 108 107 106 106 106 105 105 105 105 104 104 104 104 104 103 102 103 105 108 109 110 110 109 109 108 107 106 104 102 101 100 99 99 100 101 103 104 105 104 103 103 102 101 101 100 100 99 99 99 100 101 103 104 104 106 108 110 109 108 107 107 107 106 106 106 106
102 105 106 106 108 109 110 109 108 105 101 103 107 109 109 110 110 108 108 107 106 105 104 104 104 104 105 105 104 103 103 102 102 101 101 101 101 102 103 105 107 108 108 108 108 108 107 105 103 103 102 100 99 98 98 98 100 102 103 104 104 103 102 101 101 101 100 99 99 100 101 102 103 104 104 106 108 109 109 108 107 107 106 106 106 107
101 103 105 105 105 107 108 105 103 102 102 104 106 107 108 108 108 108 107 105 103 102 101 101 101 101 102 103 103 102 100 99 99 99 98 98 98 98 98 99 101 103 103 104 104 105 105 104 103 102 102 101 101 99 98 97 97 98 100 102 103 103 102 101 101 101 101 101 100 100 101 102 103 103 104 105 107 108 109 110 109 108 107 107 107 107
97 100 103 103 101 104 105 101 97 99 103 104 104 105 106 104 104 105 106 103 100 98 98 99 99 99 100 101 101 100 98 98 97 97 96 96 95 95 95 95 96 97 99 99 100 101 102 102 101 101 101 100 101 101 99 97 96 95 96 99 101 101 100 99 99 100 101 102 102 101 101 102 102 102 103 104 106 107 109 110 110 110 109 108 108 108
94 96 101 100 97 99 100 95 92 97 101 102 102 102 101 101 100 101 102 100 97 96 96 97 98 98 98 99 99 98 98 97 96 96 95 95 93 92 92 92 93 94 95 96 97 99 100 100 99 99 99 99 100 101 100 98 96 95 95 96 98 98 97 97 97 98 99 101 102 102 102 102 102 102 102 103 104 106 108 109 110 110 110 109 109 109
90 94 98 97 95 95 93 88 90 96 98 98 99 98 96 97 98 98 98 97 96 96 96 97 97 97 97 98 98 98 97 96 96 95 94 93 92 91 91 91 92 93 93 94 95 96 97 97 97 97 97 97 97 99 100 98 97 97 96 96 96 96 94 93 94 96 97 99 100 101 101 101 101 101 101 102 103 105 106 107 108 109 109 109 109 109
87 90 94 96 96 95 89 85 89 96 97 96 96 94 93 95 96 96 96 96 96 97 96 96 97 97 97 98 98 97 96 95 95 94 93 92 91 91 91 91 92 92 92 92 93 93 93 93 93 94 94 93 94 96 97 96 95 96 96 96 95 95 93 91 91 93 94 96 98 99 99 98 98 98 99 100 102 104 105 105 106 107 108 109 109 109
87 88 92 97 98 93 88 86 90 95 95 94 93 92 92 94 94 94 95 96 97 97 96 96 96 96 96 97 96 96 94 93 92 93 92 90 90 90 90 91 91 91 90 91 91 91 91 90 90 90 89 89 91 92 93 92 93 95 96 95 94 93 91 89 88 89 90 92 96 98 98 96 95 95 96 98 101 102 103 102 103 104 106 107 107 108
87 88 92 98 97 90 87 89 92 94 93 91 90 92 93 94 94 94 95 96 97 97 96 96 96 96 95 95 95 94 93 91 90 90 89 88 88 87 87 88 88 88 88 88 88 88 88 88 88 87 86 87 88 89 88 88 90 92 94 94 92 91 90 88 87 86 86 88 92 95 96 95 93 92 94 96 98 99 98 98 99 100 102 104 105 106
87 89 93 97 96 92 89 89 90 92 92 90 90 92 93 94 94 94 95 95 95 95 95 95 94 93 93 93 93 92 91 89 88 87 86 85 85 84 83 83 83 83 84 85 85 85 85 85 85 85 85 85 87 87 87 86 87 90 91 91 90 89 88 87 86 84 83 85 88 90 93 93 92 91 92 94 97 98 97 95 95 96 98 100 102 104
Wind_Direction
290 289 289 285 282 281 284 287 288 286 285 285 282 280 280 278 276 275 274 274 275 278 286 284 284 289 289 288 290 293 294 295 293 294 296 296 298 299 296 293 292 294 294 293 291 289 287 283 280 275 273 276 277 276 275 274 272 270 270 270 270 271 272 273 274 275 275 273 270 266 263 262 262 263 263 264 264 264 264 265 265 265 265 266 267 268
290 292 291 286 283 284 286 287 286 287 287 287 286 283 281 279 275 273 276 276 277 281 281 276 278 284 285 287 288 289 291 291 290 292 295 297 298 297 295 295 295 295 294 293 292 291 289 286 283 280 277 276 276 276 276 274 273 272 271 270 270 270 272 272 273 274 274 274 274 272 269 266 264 262 262 262 263 263 264 264 265 265 266 266 267 268
290 292 289 285 284 285 286 286 285 285 286 286 284 282 280 279 275 274 277 278 279 282 280 275 275 274 276 282 285 287 288 286 286 289 291 293 294 293 293 294 295 294 293 292 292 292 290 288 286 284 280 278 276 275 274 274 274 273 273 272 271 271 272 274 275 276 275 275 274 272 271 270 268 265 263 262 263 263 263 264 264 265 266 267 268 269
288 287 285 284 284 284 284 284 284 283 284 284 282 280 279 278 276 275 275 278 280 282 279 276 274 269 271 274 278 283 283 283 284 286 287 288 288 290 292 292 292 292 291 290 289 290 289 288 287 286 284 281 279 276 274 273 273 274 274 273 273 272 272 272 273 275 276 275 274 273 271 270 269 268 267 266 264 263 263 264 265 265 267 268 268 269
286 284 282 282 283 283 283 284 283 282 282 283 282 281 278 276 276 274 272 273 277 281 280 276 273 269 269 267 268 274 279 281 283 284 286 285 285 287 289 291 291 290 290 289 288 288 288 286 286 285 285 283 281 279 277 275 273 273 274 274 274 274 273 272 272 273 273 272 272 273 272 271 269 269 268 267 266 265 265 265 265 265 266 266 266 266
286 283 281 281 282 283 284 284 283 282 282 283 284 282 279 276 275 274 272 271 272 275 277 277 273 268 265 265 261 261 270 278 282 284 285 285 284 285 286 288 288 287 288 288 288 288 287 286 285 285 284 283 282 281 279 277 276 274 274 274 273 273 274 274 274 274 273 270 269 269 271 271 271 270 268 266 266 267 267 266 265 265 264 264 264 265
287 284 284 284 284 284 285 284 283 283 283 283 284 283 281 279 277 276 274 273 272 272 274 276 275 269 263 264 263 259 261 268 276 280 282 284 284 284 284 284 284 285 286 286 287 287 286 285 285 284 283 282 281 281 280 279 277 276 275 274 273 273 274 274 274 274 274 273 270 268 269 270 271 270 269 268 268 268 267 266 265 264 264 264 264 264
286 285 286 286 286 286 285 283 283 285 285 284 283 283 282 282 281 279 277 276 274 272 273 275 275 272 265 263 265 265 264 264 268 273 277 282 284 284 284 283 282 284 285 285 286 286 285 284 283 282 281 280 280 280 279 278 278 277 277 276 275 275 274 274 273 273 273 273 273 272 271 271 271 270 270 270 270 268 268 267 267 266 265 265 265 265
285 285 287 287 288 287 285 285 285 285 285 284 283 283 283 284 284 284 283 281 278 275 274 275 275 273 268 264 265 267 270 269 268 270 273 277 280 280 280 281 282 282 283 285 286 285 285 283 282 281 279 278 278 277 277 276 276 276 276 276 276 276 275 274 274 273 272 272 272 273 273 273 273 271 271 271 271 270 270 270 269 269 269 269 268 268
284 285 286 286 287 286 285 286 285 285 285 285 284 285 285 286 286 287 287 287 284 281 280 280 277 275 270 266 271 271 271 273 272 272 272 272 273 273 273 275 277 278 279 282 283 284 283 283 282 282 281 279 278 277 276 276 275 275 275 276 276 276 275 275 274 274 273 272 271 271 272 272 273 272 271 271 271 271 272 272 272 272 272 272 272 272
284 285 285 285 285 285 285 285 285 285 285 286 286 287 288 287 288 288 289 289 288 288 289 286 283 282 275 267 278 282 281 282 283 282 280 275 271 269 269 269 270 273 275 276 277 279 282 283 283 282 280 280 279 278 277 277 277 277 277 277 277 277 276 275 275 274 274 273 272 271 271 271 271 271 270 270 269 269 270 271 272 273 273 273 273 272
284 285 285 285 285 285 286 286 286 286 286 287 288 289 289 289 289 290 290 291 291 291 291 288 287 287 282 277 285 288 289 290 289 288 289 287 282 276 272 269 267 268 270 271 272 273 275 278 281 281 280 280 280 279 278 277 277 277 278 278 277 276 276 277 277 276 275 274 273 272 271 271 270 270 269 268 268 268 268 269 269 271 272 272 271 271
284 285 285 285 285 286 287 287 286 286 287 288 289 289 290 290 291 292 292 291 291 292 292 290 289 289 289 291 292 292 291 291 291 291 291 289 286 282 279 276 272 269 268 269 269 270 270 271 273 275 276 278 280 280 279 277 276 276 276 276 275 274 274 276 277 277 276 275 274 273 272 272 271 270 269 268 268 268 268 268 269 270 271 271 271 271
283 283 284 284 284 285 286 286 286 286 287 288 289 290 291 292 292 291 290 289 291 293 293 292 291 291 293 295 294 293 292 292 293 292 291 287 284 281 279 278 276 273 270 269 269 269 269 269 269 270 270 272 275 277 278 279 278 277 276 275 274 273 273 274 275 276 276 276 276 276 274 272 271 270 270 270 269 269 269 269 270 270 271 272 272 271
281 281 282 282 283 284 285 286 287 288 288 288 289 289 289 291 290 288 288 290 292 293 292 292 293 294 295 295 293 293 294 294 293 290 287 286 284 282 281 280 280 279 276 274 274 272 269 268 268 268 267 267 269 271 273 275 276 277 276 275 274 273 273 274 274 275 275 276 276 277 276 274 272 270 269 269 269 269 269 269 270 270 271 271 271 271
282 282 282 281 281 282 282 284 286 287 288 288 289 288 289 288 286 286 289 291 292 292 292 293 294 295 294 293 293 293 293 293 291 287 285 285 284 283 283 282 281 281 280 278 276 274 273 271 270 268 267 266 266 267 267 267 269 271 273 274 274 275 275 275 275 275 275 275 275 275 275 274 274 272 270 269 269 268 269 269 270 270 270 270 270 270
283 282 281 280 281 282 282 283 285 285 287 287 288 287 286 284 284 285 288 290 291 292 293 293 293 293 293 292 292 292 291 291 289 288 289 290 289 287 284 281 280 279 277 275 274 275 275 275 274 272 271 269 266 265 265 265 265 266 268 270 272 273 275 276 277 276 275 275 274 273 272 272 273 273 272 271 270 269 269 269 269 269 269 270 270 271
284 282 281 281 281 282 282 282 284 286 287 287 286 284 282 282 283 285 287 288 289 289 291 291 291 291 291 291 292 291 290 291 290 289 290 290 289 287 285 282 280 277 274 272 273 275 277 277 276 275 274 272 270 266 265 264 265 265 266 267 269 270 271 273 275 275 275 274 274 273 272 272 272 272 272 271 271 270 270 270 269 269 269 269 269 270
284 283 284 283 282 281 281 281 284 287 286 284 283 282 282 283 284 285 285 285 285 286 288 288 288 287 288 290 290 288 290 292 290 288 287 287 286 283 282 280 278 277 275 273 274 275 276 277 277 276 275 274 273 271 268 266 266 266 266 267 268 269 269 269 269 270 271 272 273 273 273 272 272 271 270 270 270 270 269 269 268 268 268 268 268 268
284 284 285 285 283 282 282 283 285 284 281 280 281 282 283 284 284 284 284 284 285 286 286 286 287 287 288 288 288 288 289 288 284 282 282 282 280 279 277 277 277 277 277 278 278 277 276 275 274 275 275 275 274 273 271 269 267 267 267 267 266 266 267 267 266 266 266 268 269 270 271 271 271 271 270 270 270 269 269 268 267 267 267 267 267 267
284 285 285 285 284 284 285 286 284 282 281 282 282 282 283 284 284 283 283 284 285 285 286 287 287 288 288 287 287 288 287 283 280 279 278 277 276 276 276 277 278 278 279 279 278 277 275 273 272 272 272 272 271 271 270 269 267 266 266 266 266 265 264 265 265 265 265 266 267 268 269 269 269 268 268 268 268 268 267 267 267 267 267 267 267 267
283 284 284 285 285 285 285 284 283 283 283 282 282 282 282 282 282 282 282 283 283 283 284 286 286 287 287 287 287 286 284 281 279 277 276 275 276 276 277 278 279 279 279 278 276 274 272 271 271 272 272 272 272 271 269 268 266 265 264 263 264 264 264 263 263 264 264 265 265 266 266 266 266 266 266 266 266 266 266 266 266 265 265 266 266 266
282 282 282 283 284 283 282 282 282 282 282 281 280 280 280 280 280 280 280 281 281 281 282 283 284 285 286 286 286 284 283 281 279 277 277 276 277 277 278 278 278 278 277 276 275 273 271 270 270 271 272 273 274 274 273 270 268 266 265 264 263 263 263 264 263 263 263 264 264 263 263 264 263 263 263 263 264 264 265 265 265 264 264 263 264 264
280 280 280 281 281 281 280 280 280 280 279 279 279 279 279 279 279 279 280 280 280 280 281 282 283 284 285 285 284 283 281 280 279 278 278 277 277 277 277 277 277 277 277 276 275 273 271 270 269 269 270 272 273 274 274 273 270 268 266 265 264 264 263 263 263 263 263 263 262 262 262 261 260 260 260 260 261 262 263 263 264 264 264 263 262 263
279 279 279 280 280 280 280 280 279 279 278 278 278 278 278 278 278 279 279 280 280 280 281 282 283 283 283 282 282 281 280 278 277 277 277 278 278 277 277 276 276 276 276 276 275 274 273 272 271 270 271 271 272 273 273 272 270 268 267 265 265 264 263 263 262 262 262 262 261 261 261 260 259 258 258 258 259 260 261 262 263 264 264 264 263 262
279 279 279 279 280 279 279 279 279 278 277 277 277 277 277 278 278 278 279 279 279 281 282 282 282 282 282 281 280 279 279 277 276 276 277 277 277 276 276 275 275 275 275 275 275 274 274 274 273 272 272 272 272 272 271 270 269 268 267 265 264 264 263 263 262 261 261 260 260 260 260 259 258 257 257 257 257 259 260 261 262 263 263 263 263 262
278 278 279 279 279 279 279 278 278 278 277 277 277 277 277 277 277 277 278 278 280 280 280 279 280 280 280 279 278 278 278 278 278 278 277 277 276 276 276 275 275 274 274 274 274 274 274 273 273 273 272 272 271 270 269 268 267 266 266 265 265 264 263 263 262 261 260 259 258 258 258 258 257 256 256 256 257 258 259 260 262 262 262 262 262 262
277 278 278 278 278 278 278 278 277 277 277 277 276 276 276 276 276 276 277 278 279 278 277 277 278 277 277 277 277 277 277 278 278 278 278 277 276 276 275 275 275 274 274 274 273 273 273 273 272 272 272 271 271 269 268 266 265 264 264 264 264 264 264 263 263 262 262 260 258 257 256 256 256 256 256 256 256 257 258 259 260 261 261 261 261 261
276 276 277 277 277 277 277 277 277 277 276 276 276 276 276 276 276 276 277 278 277 276 276 277 276 275 275 275 275 276 277 277 277 277 277 277 276 275 275 274 274 273 273 273 272 272 272 272 271 271 271 271 270 269 268 266 265 263 263 262 262 262 263 264 263 263 262 261 260 259 257 255 254 254 255 255 255 256 256 257 258 259 260 260 260 260
276 276 276 276 275 276 276 277 277 277 276 276 276 276 276 277 277 277 277 276 275 275 275 276 276 275 275 275 275 276 275 275 276 276 276 276 276 275 275 274 274 273 273 272 272 271 271 271 270 270 270 269 269 269 269 268 267 265 264 262 261 261 261 262 262 262 261 261 260 260 259 258 256 255 254 254 254 254 254 255 255 256 257 258 259 259
276 276 276 276 275 275 275 276 276 276 276 276 276 277 278 279 279 278 276 275 275 275 275 275 275 275 276 276 276 275 275 274 274 274 275 275 275 275 275 275 275 274 274 273 273 272 271 270 270 270 269 268 268 267 268 268 268 267 266 265 263 262 261 260 260 261 261 260 259 258 258 259 258 258 257 255 254 254 253 253 254 254 255 257 258 258
276 276 276 276 276 276 276 276 276 276 275 276 277 278 279 279 278 277 276 276 276 276 275 275 275 275 275 276 276 276 276 275 275 275 275 275 275 275 275 275 275 275 274 274 273 273 272 271 270 269 269 268 268 267 266 266 266 266 267 266 265 264 263 262 261 260 260 260 259 259 258 257 257 258 258 258 257 256 255 254 254 254 254 255 256 257
276 276 276 276 276 277 278 277 276 276 276 277 279 279 278 277 276 277 277 276 276 276 276 276 276 276 276 276 276 277 277 277 277 277 277 276 276 276 276 276 275 275 275 274 274 273 273 272 270 269 268 268 267 267 266 265 265 264 265 265 265 265 265 264 263 262 261 261 261 261 261 259 258 258 259 259 258 257 256 256 256 255 255 254 255 255
276 276 276 277 277 278 279 278 276 276 278 280 280 278 277 277 278 277 277 277 277 276 276 276 276 276 275 275 275 275 276 277 277 277 277 277 277 277 277 276 276 276 276 275 274 274 273 273 271 270 268 267 266 265 265 264 263 263 263 263 264 264 264 264 264 263 263 262 261 261 261 261 260 259 259 259 259 258 257 257 256 257 257 256 255 255
276 276 276 277 278 279 279 278 277 278 280 280 279 278 279 280 279 278 277 277 276 276 276 276 276 276 275 275 275 275 275 276 276 277 277 277 277 276 276 276 276 276 276 276 275 275 274 273 273 271 270 269 267 266 264 262 261 261 260 260 261 262 262 263 263 263 263 263 262 262 261 261 261 260 260 260 259 259 259 258 258 258 258 258 257 257
277 277 277 277 277 278 278 278 278 279 279 279 278 279 279 279 279 279 278 277 277 277 277 277 276 276 276 276 276 276 276 276 276 277 277 277 277 276 276 276 276 275 275 275 275 275 274 274 273 272 271 270 269 268 266 264 262 260 259 258 258 258 259 260 260 261 261 262 262 262 262 262 262 262 262 261 261 260 260 260 260 260 260 260 259 259
277 277 277 277 277 278 278 278 278 278 278 279 279 279 278 278 278 278 277 277 278 277 277 277 276 276 276 277 277 277 276 276 277 277 277 277 277 277 276 276 276 275 275 274 274 274 274 273 273 272 271 270 270 269 269 267 264 262 260 259 258 257 256 256 257 258 259 260 260 261 261 262 262 262 262 262 262 262 261 260 260 260 260 260 260 260
277 277 278 278 278 278 278 278 278 278 279 279 279 279 278 278 278 277 277 277 277 277 277 276 276 276 276 276 276 276 277 277 277 277 277 277 277 276 276 276 275 274 274 273 273 273 273 273 273 272 271 270 269 268 268 268 267 265 262 260 258 257 256 255 255 255 256 257 257 258 258 259 260 261 261 262 262 262 262 261 261 260 259 260 260 260
277 277 277 278 278 278 278 278 278 279 279 279 279 278 278 277 277 277 277 277 277 277 277 276 276 276 276 276 276 276 277 277 277 277 277 277 277 276 275 275 274 274 274 273 272 271 271 271 271 272 272 271 270 269 267 267 266 266 264 262 260 258 257 255 255 254 254 254 255 256 256 257 257 258 259 260 261 261 262 262 261 261 260 260 260 260
276 276 277 277 277 278 278 278 278 278 278 279 279 278 277 277 277 277 277 277 278 276 276 276 276 277 277 277 277 277 277 276 276 275 275 276 276 276 276 276 275 274 274 273 273 272 270 269 268 268 269 269 270 270 269 268 266 265 264 264 262 261 259 257 256 255 253 253 253 253 254 255 255 256 258 259 259 260 260 261 261 261 261 261 261 261
276 276 275 275 276 276 276 276 276 277 277 279 279 278 278 277 277 277 277 277 277 276 276 277 277 277 277 277 277 276 276 276 275 275 274 274 275 275 276 276 276 276 275 275 274 273 272 271 269 268 266 266 267 267 268 269 268 267 266 265 264 263 261 260 259 257 256 254 253 252 252 253 253 254 255 257 258 258 258 259 259 260 261 261 261 262
275 275 274 274 275 275 275 275 276 277 279 279 278 278 278 278 277 277 277 277 277 277 278 278 278 278 278 277 277 277 276 275 275 275 274 274 273 274 274 275 275 275 275 275 275 275 274 273 272 271 269 267 266 265 265 266 267 267 267 266 265 264 263 262 261 260 258 257 255 254 253 253 252 252 253 254 256 257 256 256 257 258 259 260 261 262
274 274 274 274 275 275 276 276 278 279 279 278 277 277 277 277 277 277 277 277 277 278 278 279 279 279 279 279 278 277 276 276 275 275 274 274 273 273 273 273 274 274 274 274 275 275 275 274 274 273 272 271 269 267 265 264 264 264 265 265 264 264 263 262 261 261 259 258 257 256 255 254 253 252 252 252 253 255 255 255 255 256 256 257 259 260
274 275 275 275 275 276 276 277 279 280 279 278 277 277 277 277 278 278 278 278 278 279 279 280 280 279 279 278 277 277 277 276 276 275 274 274 273 272 272 272 272 273 273 273 274 274 274 274 274 274 273 273 272 270 268 265 264 263 263 264 263 262 262 261 261 261 260 259 258 257 256 255 254 253 252 252 252 253 254 255 255 255 255 256 257 258
274 275 275 275 275 276 276 277 279 279 278 277 277 276 276 277 278 278 279 279 280 280 280 280 279 278 278 277 277 277 277 276 276 275 274 274 273 273 272 272 272 272 272 272 272 272 272 272 272 272 272 272 272 271 270 268 266 264 263 263 263 262 262 261 260 259 259 259 259 258 257 256 255 254 253 253 252 253 253 254 255 256 256 256 256 257
276 276 276 276 276 276 277 278 279 277 276 276 276 276 277 278 278 278 279 280 281 281 280 279 279 278 278 278 278 278 277 277 276 276 275 275 275 274 274 273 273 272 272 271 271 271 271 271 271 271 271 271 271 271 270 269 268 266 264 263 263 262 262 261 260 259 259 258 258 257 256 256 255 255 254 253 253 253 253 254 254 255 256 256 256 256
278 278 278 278 277 276 276 278 277 276 276 276 276 277 278 279 279 279 280 281 281 280 279 279 278 278 278 278 278 277 277 278 278 277 277 277 277 277 276 275 274 273 272 271 271 270 270 270 270 270 269 269 269 269 269 269 269 268 266 264 263 262 261 260 260 260 260 259 258 257 256 255 255 254 254 253 252 252 252 253 253 254 254 255 255 255
279 278 279 279 277 277 277 277 277 276 276 276 277 278 279 279 280 280 281 280 280 279 278 278 278 278 278 278 278 278 278 278 279 279 279 279 279 279 278 276 275 274 273 273 272 271 271 270 270 270 269 269 269 269 269 269 268 268 267 265 264 263 262 260 259 259 259 259 259 259 258 256 255 254 253 252 252 251 251 251 252 252 253 254 254 254
279 278 278 277 276 277 279 278 277 276 276 277 279 280 280 279 279 280 280 280 279 279 279 279 278 278 278 278 278 279 279 279 279 279 279 279 279 278 277 277 276 275 275 275 274 273 273 272 272 271 270 270 269 269 268 268 268 268 267 266 265 264 263 261 259 258 258 258 259 259 259 258 257 256 254 253 252 252 251 251 250 250 251 252 253 253
278 278 277 277 277 278 278 277 277 277 278 279 280 280 279 279 279 279 279 279 279 279 279 279 279 279 279 279 280 280 280 280 280 279 279 278 278 277 277 276 276 276 276 275 275 274 274 274 273 272 272 271 270 269 268 267 267 267 266 266 265 265 264 262 261 259 257 257 257 259 259 259 259 257 257 256 255 255 253 252 251 250 250 251 251 252
278 277 277 277 278 278 277 277 277 278 279 280 280 279 279 279 279 279 278 278 278 279 279 279 280 280 281 281 281 281 281 280 280 279 279 279 279 278 277 276 276 276 275 274 274 273 273 273 272 272 271 270 270 269 268 267 266 265 265 265 265 265 264 263 261 260 258 257 256 256 257 258 258 257 257 256 257 257 256 254 253 252 251 251 251 252
Height
10737 10739 10739 10735 10729 10725 10725 10726 10728 10729 10729 10731 10731 10732 10733 10733 10736 10731 10728 10726 10721 10732 10742 10737 10739 10741 10738 10737 10734 10730 10727 10726 10724 10721 10720 10719 10719 10719 10716 10715 10715 10715 10714 10712 10712 10712 10714 10715 10715 10717 10717 10716 10714 10713 10714 10713 10712 10712 10712 10711 10709 10709 10708 10707 10706 10705 10705 10705 10706 10707 10708 10708 10708 10709 10709 10708 10708 10708 10708 10709 10709 10709 10710 10711 10711 10712
10733 10735 10733 10727 10722 10721 10722 10720 10721 10722 10722 10724 10724 10725 10726 10726 10728 10726 10723 10721 10717 10727 10738 10733 10735 10738 10734 10733 10731 10728 10725 10721 10720 10720 10717 10714 10714 10712 10710 10709 10710 10710 10709 10707 10706 10706 10706 10708 10708 10709 10709 10709 10708 10707 10707 10707 10706 10707 10707 10706 10704 10704 10703 10701 10701 10701 10700 10699 10700 10701 10701 10700 10701 10701 10701 10700 10700 10701 10702 10702 10701 10702 10703 10704 10705 10705
10729 10730 10725 10719 10717 10716 10716 10714 10714 10716 10717 10717 10715 10716 10720 10718 10719 10723 10719 10716 10714 10721 10729 10728 10732 10735 10731 10730 10729 10725 10722 10716 10714 10717 10716 10712 10707 10705 10703 10704 10705 10705 10703 10702 10700 10699 10699 10699 10700 10700 10701 10701 10701 10701 10700 10701 10701 10701 10701 10699 10699 10699 10698 10697 10696 10695 10694 10694 10694 10694 10694 10694 10694 10693 10693 10693 10693 10694 10694 10694 10694 10695 10696 10697 10698 10698
10725 10722 10716 10712 10712 10711 10710 10708 10707 10709 10711 10710 10707 10707 10713 10710 10710 10717 10715 10711 10711 10714 10719 10722 10726 10731 10729 10728 10727 10722 10717 10712 10710 10711 10713 10710 10704 10700 10697 10696 10698 10698 10697 10696 10694 10693 10692 10692 10693 10693 10693 10694 10694 10694 10693 10694 10695 10694 10693 10693 10693 10693 10692 10692 10691 10690 10689 10688 10688 10687 10687 10688 10688 10687 10686 10686 10685 10685 10686 10687 10688 10689 10690 10690 10690 10690
10718 10712 10708 10707 10705 10704 10704 10703 10699 10700 10704 10704 10699 10699 10704 10703 10701 10707 10709 10707 10708 10708 10709 10713 10720 10727 10725 10723 10725 10720 10711 10708 10706 10707 10707 10704 10700 10697 10694 10690 10689 10689 10689 10689 10688 10686 10684 10684 10685 10684 10685 10686 10686 10686 10686 10687 10687 10687 10687 10686 10686 10685 10684 10684 10684 10684 10684 10683 10682 10681 10681 10681 10681 10681 10681 10680 10678 10678 10680 10681 10681 10682 10682 10682 10681 10680
10710 10700 10698 10701 10699 10697 10697 10696 10690 10689 10698 10699 10692 10689 10692 10695 10695 10697 10698 10701 10705 10704 10702 10704 10710 10719 10720 10718 10719 10716 10709 10704 10702 10702 10701 10697 10694 10693 10692 10688 10683 10681 10683 10682 10680 10679 10677 10676 10676 10675 10676 10677 10678 10678 10679 10679 10678 10679 10679 10679 10678 10678 10678 10677 10677 10677 10677 10677 10677 10676 10675 10674 10674 10674 10674 10672 10672 10673 10674 10675 10675 10675 10674 10673 10673 10673
10702 10691 10689 10693 10692 10690 10689 10687 10680 10679 10689 10693 10686 10681 10682 10685 10686 10688 10688 10691 10697 10700 10699 10698 10699 10709 10716 10714 10710 10709 10707 10703 10700 10698 10696 10691 10687 10686 10686 10685 10680 10675 10676 10676 10673 10671 10669 10668 10667 10666 10666 10667 10669 10670 10671 10671 10670 10671 10671 10670 10670 10670 10671 10670 10670 10671 10670 10670 10670 10670 10670 10669 10668 10667 10666 10666 10667 10668 10668 10668 10668 10667 10667 10666 10666 10666
10693 10685 10684 10683 10683 10684 10680 10676 10673 10672 10678 10682 10678 10674 10674 10674 10675 10678 10679 10681 10686 10691 10694 10693 10690 10696 10709 10710 10704 10703 10703 10702 10699 10695 10694 10690 10682 10679 10677 10676 10676 10672 10669 10668 10667 10663 10660 10660 10659 10657 10657 10658 10660 10661 10662 10662 10662 10663 10662 10662 10662 10663 10663 10663 10663 10664 10664 10664 10663 10663 10664 10663 10662 10660 10660 10660 10661 10661 10661 10661 10661 10660 10660 10660 10659 10659
10684 10681 10680 10676 10675 10673 10669 10666 10666 10664 10665 10670 10669 10667 10667 10665 10665 10667 10668 10670 10673 10680 10687 10687 10680 10680 10697 10705 10699 10699 10699 10697 10695 10692 10692 10689 10681 10676 10671 10667 10668 10667 10664 10661 10659 10655 10651 10651 10650 10649 10649 10649 10651 10652 10653 10655 10655 10655 10655 10654 10654 10654 10655 10655 10655 10656 10656 10656 10657 10657 10657 10656 10655 10655 10655 10654 10654 10653 10652 10653 10653 10653 10653 10653 10653 10652
10674 10675 10674 10671 10667 10662 10659 10658 10656 10654 10653 10655 10656 10658 10658 10656 10657 10656 10657 10659 10659 10668 10678 10675 10667 10666 10684 10698 10693 10693 10695 10689 10687 10685 10686 10685 10678 10673 10670 10665 10661 10659 10659 10657 10653 10646 10640 10640 10641 10641 10641 10641 10641 10643 10645 10647 10648 10648 10647 10647 10647 10646 10647 10647 10647 10648 10648 10648 10649 10649 10649 10648 10647 10648 10648 10648 10647 10645 10644 10644 10644 10644 10645 10645 10645 10645
10666 10667 10667 10664 10659 10654 10652 10649 10646 10644 10641 10641 10642 10646 10646 10645 10648 10645 10647 10647 10644 10657 10666 10659 10653 10653 10671 10692 10687 10683 10685 10680 10676 10674 10674 10675 10671 10668 10665 10662 10658 10653 10652 10651 10647 10641 10633 10630 10631 10631 10632 10632 10632 10634 10635 10637 10639 10640 10640 10639 10639 10638 10638 10639 10639 10639 10639 10639 10640 10639 10640 10640 10640 10641 10641 10640 10639 10638 10637 10637 10636 10636 10637 10637 10637 10636
10658 10658 10657 10654 10650 10645 10643 10640 10637 10634 10630 10630 10631 10633 10633 10633 10635 10632 10634 10634 10630 10643 10650 10643 10639 10640 10660 10683 10677 10671 10672 10667 10664 10662 10661 10661 10659 10658 10656 10654 10652 10649 10646 10643 10640 10637 10630 10625 10623 10621 10620 10621 10622 10624 10625 10627 10629 10631 10631 10631 10631 10630 10629 10630 10630 10630 10630 10630 10630 10629 10630 10631 10632 10633 10633 10632 10631 10631 10630 10630 10630 10629 10629 10629 10628 10627
10651 10650 10646 10643 10641 10637 10633 10629 10627 10625 10622 10621 10620 10620 10618 10620 10621 10618 10618 10617 10616 10628 10633 10628 10625 10628 10652 10670 10663 10659 10659 10654 10653 10652 10651 10650 10646 10644 10642 10639 10639 10638 10637 10636 10632 10628 10624 10622 10619 10615 10613 10611 10612 10612 10613 10616 10619 10621 10622 10621 10621 10621 10620 10621 10621 10621 10621 10621 10621 10620 10621 10621 10622 10623 10622 10622 10622 10622 10622 10622 10622 10622 10621 10621 10620 10619
10642 10642 10637 10631 10631 10630 10624 10618 10615 10615 10615 10612 10610 10608 10605 10607 10606 10601 10601 10600 10603 10613 10615 10611 10610 10617 10642 10655 10648 10646 10646 10643 10643 10640 10637 10637 10634 10631 10628 10625 10625 10625 10625 10624 10622 10617 10613 10613 10613 10611 10608 10606 10605 10604 10602 10603 10605 10608 10610 10611 10611 10611 10610 10611 10611 10612 10612 10612 10613 10613 10613 10612 10613 10613 10612 10612 10612 10612 10612 10612 10613 10612 10612 10612 10611 10610
10628 10633 10632 10621 10618 10621 10615 10609 10604 10604 10604 10603 10602 10597 10595 10597 10589 10579 10580 10585 10592 10597 10595 10595 10597 10605 10625 10637 10634 10633 10634 10633 10631 10626 10624 10623 10621 10618 10614 10611 10610 10610 10610 10608 10605 10600 10598 10600 10603 10602 10601 10600 10600 10599 10598 10596 10595 10595 10596 10597 10599 10599 10600 10600 10601 10603 10603 10604 10604 10603 10603 10603 10603 10604 10603 10603 10602 10602 10602 10602 10603 10602 10602 10601 10600 10599
10608 10619 10626 10613 10607 10610 10606 10601 10597 10593 10591 10592 10592 10589 10586 10585 10573 10562 10563 10570 10575 10574 10577 10584 10586 10591 10605 10615 10621 10622 10623 10622 10615 10611 10612 10609 10607 10604 10600 10597 10594 10592 10594 10591 10586 10582 10582 10586 10589 10591 10592 10592 10591 10589 10590 10590 10588 10586 10585 10585 10586 10586 10588 10590 10592 10593 10593 10593 10593 10592 10592 10592 10593 10594 10593 10592 10592 10592 10592 10593 10593 10592 10591 10590 10588 10588
10589 10599 10611 10605 10596 10597 10596 10593 10589 10584 10580 10577 10579 10579 10574 10567 10560 10554 10550 10553 10554 10548 10554 10567 10570 10576 10585 10593 10609 10614 10609 10609 10601 10594 10596 10595 10592 10588 10582 10579 10579 10578 10577 10573 10568 10566 10569 10573 10574 10576 10578 10581 10582 10580 10577 10577 10577 10576 10575 10576 10577 10578 10579 10580 10581 10581 10580 10580 10580 10580 10580 10581 10582 10582 10582 10582 10582 10582 10583 10583 10583 10581 10579 10579 10577 10577
10569 10576 10593 10596 10586 10581 10583 10582 10579 10577 10572 10564 10561 10563 10559 10552 10551 10548 10538 10537 10537 10528 10532 10544 10549 10557 10561 10571 10595 10600 10595 10597 10588 10579 10580 10579 10576 10570 10562 10559 10559 10560 10559 10555 10552 10552 10557 10561 10562 10563 10563 10565 10569 10570 10568 10564 10561 10561 10562 10565 10567 10570 10572 10572 10570 10567 10565 10565 10565 10565 10566 10567 10568 10570 10570 10571 10572 10573 10573 10572 10570 10569 10568 10566 10565 10565
10550 10549 10568 10585 10578 10566 10565 10568 10571 10572 10563 10551 10545 10545 10543 10539 10539 10539 10529 10524 10521 10513 10514 10521 10526 10534 10541 10556 10572 10577 10585 10589 10575 10565 10564 10561 10556 10549 10542 10540 10538 10537 10538 10539 10540 10543 10547 10550 10550 10549 10548 10548 10551 10554 10556 10554 10549 10546 10547 10551 10554 10555 10558 10560 10559 10556 10552 10550 10550 10550 10552 10554 10555 10556 10557 10558 10560 10561 10562 10560 10557 10556 10555 10553 10552 10553
10538 10529 10539 10565 10568 10553 10550 10557 10563 10561 10548 10536 10532 10531 10530 10528 10525 10522 10514 10509 10506 10499 10497 10499 10501 10509 10524 10540 10548 10554 10571 10575 10559 10551 10549 10541 10535 10526 10520 10521 10519 10518 10522 10526 10529 10533 10536 10537 10537 10537 10532 10530 10534 10536 10537 10539 10537 10533 10530 10532 10535 10536 10538 10539 10540 10540 10538 10536 10537 10538 10540 10541 10541 10542 10542 10544 10545 10546 10546 10544 10542 10542 10540 10538 10539 10540
10526 10515 10516 10536 10545 10540 10541 10545 10546 10543 10533 10524 10519 10516 10517 10516 10511 10502 10494 10496 10495 10484 10479 10477 10474 10484 10502 10518 10530 10541 10551 10549 10537 10531 10526 10517 10511 10505 10502 10504 10503 10504 10510 10515 10518 10521 10523 10522 10521 10521 10517 10513 10515 10518 10518 10520 10521 10519 10516 10512 10511 10513 10517 10519 10518 10519 10521 10521 10523 10525 10527 10528 10528 10528 10529 10529 10529 10529 10528 10527 10526 10524 10522 10522 10525 10526
10511 10502 10499 10509 10520 10525 10531 10531 10527 10524 10520 10514 10507 10504 10505 10502 10495 10483 10475 10483 10485 10472 10467 10463 10453 10460 10480 10495 10511 10523 10524 10521 10512 10502 10497 10494 10490 10487 10487 10488 10489 10491 10495 10500 10503 10505 10507 10506 10502 10501 10499 10495 10493 10495 10498 10500 10500 10500 10499 10496 10493 10492 10494 10497 10499 10501 10504 10506 10507 10509 10510 10511 10513 10514 10514 10513 10512 10511 10510 10509 10508 10506 10505 10507 10509 10510
10497 10487 10485 10493 10501 10506 10513 10518 10517 10512 10508 10503 10496 10494 10493 10487 10481 10471 10461 10467 10469 10458 10458 10455 10441 10445 10462 10475 10485 10490 10490 10492 10483 10470 10470 10473 10472 10472 10472 10471 10471 10473 10475 10479 10483 10485 10487 10487 10485 10482 10480 10478 10475 10473 10474 10477 10479 10478 10477 10478 10477 10476 10475 10476 10479 10483 10486 10487 10488 10490 10491 10493 10495 10496 10497 10497 10495 10493 10492 10490 10489 10488 10490 10492 10493 10494
10482 10473 10471 10477 10483 10486 10492 10501 10506 10502 10496 10487 10480 10481 10478 10470 10467 10460 10450 10449 10445 10440 10445 10443 10432 10437 10450 10454 10457 10457 10458 10461 10453 10441 10445 10452 10454 10455 10455 10454 10453 10452 10453 10456 10459 10463 10465 10465 10466 10465 10463 10463 10460 10457 10454 10453 10456 10457 10456 10456 10457 10457 10457 10458 10460 10463 10466 10468 10469 10470 10472 10474 10474 10475 10478 10479 10476 10473 10472 10470 10470 10471 10473 10476 10478 10479
10463 10459 10457 10456 10460 10467 10472 10479 10485 10487 10480 10467 10460 10462 10460 10455 10450 10442 10438 10432 10420 10420 10431 10425 10416 10426 10435 10431 10430 10430 10430 10432 10429 10422 10424 10430 10433 10434 10433 10433 10433 10432 10432 10434 10435 10438 10441 10443 10445 10445 10445 10445 10444 10441 10438 10434 10434 10435 10434 10435 10436 10436 10437 10439 10442 10445 10447 10449 10451 10452 10453 10453 10453 10455 10458 10459 10457 10455 10453 10451 10453 10455 10457 10459 10461 10462
10441 10441 10443 10438 10436 10442 10449 10457 10461 10463 10458 10448 10442 10443 10441 10438 10434 10426 10422 10414 10404 10408 10415 10405 10398 10406 10412 10409 10406 10404 10401 10401 10405 10408 10410 10411 10410 10410 10411 10410 10410 10411 10411 10413 10415 10417 10419 10419 10421 10423 10424 10425 10425 10423 10420 10417 10415 10415 10414 10414 10415 10416 10417 10419 10423 10427 10429 10431 10434 10435 10434 10434 10434 10435 10437 10438 10440 10439 10436 10435 10437 10438 10440 10441 10442 10443
10418 10418 10425 10423 10415 10416 10422 10430 10435 10434 10428 10425 10424 10423 10421 10418 10416 10410 10402 10398 10399 10397 10390 10387 10388 10384 10385 10388 10384 10380 10378 10376 10379 10386 10390 10392 10390 10389 10389 10388 10388 10389 10389 10391 10394 10397 10398 10398 10398 10400 10402 10403 10405 10404 10402 10400 10398 10397 10397 10396 10395 10396 10399 10402 10404 10407 10411 10414 10416 10418 10417 10416 10416 10417 10419 10420 10422 10423 10421 10420 10419 10420 10422 10422 10423 10425
10400 10395 10404 10405 10395 10393 10396 10401 10409 10408 10401 10399 10399 10399 10401 10399 10396 10393 10388 10390 10390 10374 10362 10374 10380 10367 10361 10366 10363 10360 10362 10360 10360 10362 10363 10366 10369 10369 10369 10369 10368 10369 10370 10371 10374 10375 10377 10378 10378 10378 10380 10382 10384 10384 10384 10383 10381 10380 10381 10380 10379 10379 10380 10383 10387 10389 10392 10395 10398 10401 10400 10399 10399 10400 10402 10404 10406 10407 10407 10404 10402 10402 10404 10404 10405 10407
10383 10378 10387 10387 10375 10373 10374 10376 10383 10384 10377 10375 10373 10373 10378 10379 10378 10379 10380 10379 10369 10351 10346 10357 10360 10349 10344 10345 10345 10347 10348 10345 10343 10343 10342 10343 10345 10346 10348 10350 10350 10350 10351 10352 10354 10356 10357 10358 10360 10361 10361 10362 10364 10365 10365 10365 10364 10364 10364 10364 10364 10364 10364 10365 10368 10371 10374 10375 10378 10381 10381 10382 10383 10385 10386 10388 10390 10391 10391 10389 10387 10387 10387 10387 10388 10390
10362 10360 10370 10368 10358 10357 10359 10358 10361 10359 10354 10353 10353 10352 10354 10358 10364 10366 10362 10357 10347 10338 10337 10339 10335 10329 10325 10325 10330 10333 10330 10327 10325 10325 10325 10324 10324 10324 10326 10328 10330 10332 10332 10333 10335 10337 10338 10339 10341 10343 10344 10344 10345 10346 10346 10346 10346 10346 10346 10346 10347 10348 10349 10349 10350 10352 10355 10358 10359 10360 10362 10364 10366 10368 10370 10372 10373 10373 10373 10373 10373 10372 10372 10372 10372 10374
10342 10341 10348 10347 10338 10339 10348 10348 10341 10336 10333 10332 10334 10337 10341 10343 10345 10343 10337 10334 10329 10324 10325 10325 10319 10314 10308 10307 10311 10311 10309 10310 10308 10307 10309 10308 10306 10306 10306 10307 10310 10311 10312 10313 10314 10316 10319 10321 10322 10322 10323 10324 10326 10328 10329 10329 10328 10328 10327 10327 10328 10329 10331 10332 10333 10334 10336 10339 10341 10343 10345 10347 10348 10350 10352 10353 10354 10355 10356 10357 10357 10359 10359 10358 10358 10360
10327 10322 10324 10325 10315 10319 10336 10334 10321 10317 10312 10311 10320 10330 10332 10327 10321 10318 10317 10315 10311 10308 10308 10308 10303 10299 10296 10292 10289 10287 10288 10290 10289 10290 10293 10292 10290 10290 10289 10289 10290 10291 10293 10294 10295 10297 10299 10302 10304 10304 10304 10304 10306 10308 10310 10312 10312 10311 10310 10309 10308 10309 10311 10313 10315 10317 10318 10319 10321 10324 10327 10329 10331 10332 10333 10334 10335 10337 10340 10341 10342 10344 10344 10344 10343 10344
10310 10303 10303 10304 10293 10299 10321 10318 10301 10294 10289 10297 10316 10319 10310 10305 10303 10302 10300 10296 10294 10293 10291 10288 10284 10282 10282 10278 10273 10271 10270 10268 10268 10269 10272 10274 10273 10273 10273 10273 10272 10273 10275 10276 10277 10279 10280 10282 10285 10286 10286 10287 10288 10289 10291 10293 10295 10295 10294 10293 10292 10292 10292 10294 10296 10298 10300 10300 10301 10304 10307 10309 10313 10315 10315 10315 10316 10319 10322 10325 10326 10327 10327 10327 10327 10328
10293 10286 10284 10284 10274 10280 10301 10298 10278 10270 10274 10291 10304 10296 10285 10287 10289 10286 10282 10279 10278 10276 10272 10270 10268 10265 10264 10263 10261 10260 10257 10254 10252 10251 10251 10254 10255 10255 10256 10255 10254 10255 10256 10257 10259 10261 10261 10263 10266 10267 10267 10268 10270 10272 10273 10275 10278 10280 10279 10278 10277 10276 10276 10276 10278 10279 10281 10283 10284 10286 10287 10289 10292 10294 10295 10295 10296 10299 10304 10307 10308 10308 10308 10309 10311 10313
10277 10272 10267 10266 10259 10261 10276 10275 10256 10253 10266 10276 10276 10272 10272 10273 10269 10265 10263 10261 10260 10259 10257 10256 10252 10247 10245 10244 10244 10245 10244 10243 10240 10237 10235 10236 10236 10238 10240 10238 10237 10237 10237 10237 10239 10241 10243 10245 10246 10248 10249 10248 10249 10252 10255 10258 10260 10263 10264 10263 10262 10262 10261 10260 10261 10263 10264 10265 10266 10267 10268 10269 10271 10272 10274 10275 10277 10280 10284 10287 10289 10290 10291 10292 10294 10296
10257 10255 10250 10249 10247 10245 10251 10252 10242 10241 10252 10255 10253 10257 10260 10255 10250 10247 10242 10240 10243 10244 10242 10238 10233 10229 10227 10226 10226 10228 10228 10229 10227 10223 10220 10218 10218 10219 10222 10222 10221 10220 10220 10220 10219 10221 10223 10225 10227 10229 10230 10230 10229 10230 10233 10238 10242 10245 10247 10247 10246 10247 10246 10245 10245 10247 10248 10248 10249 10249 10249 10250 10251 10252 10253 10254 10257 10261 10265 10268 10270 10272 10273 10275 10277 10278
10239 10237 10233 10230 10231 10231 10230 10231 10230 10229 10233 10238 10240 10241 10239 10235 10235 10231 10223 10222 10228 10229 10224 10220 10216 10213 10211 10210 10210 10210 10211 10213 10214 10210 10205 10202 10202 10201 10202 10204 10204 10203 10203 10203 10202 10202 10202 10204 10207 10209 10210 10212 10212 10210 10211 10215 10220 10225 10228 10228 10228 10229 10230 10229 10230 10231 10232 10232 10233 10233 10232 10232 10232 10232 10233 10234 10237 10241 10246 10250 10253 10255 10256 10257 10259 10260
10222 10221 10217 10210 10211 10215 10211 10209 10213 10214 10216 10223 10225 10222 10217 10214 10215 10213 10205 10205 10211 10211 10205 10200 10198 10199 10198 10196 10195 10195 10195 10196 10199 10197 10190 10186 10185 10185 10184 10185 10185 10184 10185 10185 10185 10186 10184 10183 10185 10186 10188 10191 10193 10193 10193 10194 10198 10202 10206 10208 10208 10208 10210 10211 10212 10215 10217 10217 10217 10217 10217 10216 10215 10215 10215 10216 10219 10223 10228 10231 10234 10237 10239 10240 10242 10242
10210 10207 10203 10193 10192 10198 10195 10190 10195 10199 10201 10205 10206 10202 10198 10195 10196 10193 10186 10187 10196 10195 10183 10178 10179 10182 10182 10181 10181 10181 10181 10181 10183 10184 10176 10167 10165 10165 10165 10166 10166 10165 10166 10166 10167 10168 10169 10169 10168 10167 10167 10167 10169 10171 10173 10176 10179 10180 10182 10185 10186 10187 10189 10191 10193 10196 10200 10202 10202 10201 10200 10200 10200 10200 10199 10200 10203 10207 10210 10213 10215 10218 10221 10223 10225 10225
10199 10194 10189 10181 10178 10180 10177 10174 10179 10183 10187 10189 10185 10181 10179 10176 10176 10173 10168 10172 10179 10173 10163 10162 10164 10165 10165 10165 10165 10165 10165 10163 10164 10167 10164 10156 10148 10145 10144 10145 10146 10147 10146 10146 10146 10147 10150 10152 10153 10153 10151 10149 10148 10149 10150 10154 10159 10161 10161 10163 10164 10165 10167 10170 10173 10177 10181 10185 10186 10186 10184 10184 10185 10186 10185 10185 10188 10192 10194 10196 10198 10200 10202 10205 10207 10208
10186 10181 10174 10168 10166 10166 10162 10159 10161 10166 10175 10178 10168 10159 10158 10157 10156 10155 10155 10157 10155 10149 10147 10149 10149 10149 10149 10148 10148 10148 10148 10145 10143 10146 10149 10146 10139 10132 10127 10124 10125 10127 10127 10127 10126 10126 10127 10130 10133 10134 10136 10135 10134 10133 10132 10133 10137 10140 10141 10143 10143 10144 10146 10150 10154 10157 10161 10166 10168 10169 10168 10168 10170 10172 10172 10170 10171 10175 10179 10180 10182 10183 10185 10187 10189 10191
10171 10164 10156 10153 10152 10150 10147 10144 10143 10153 10167 10166 10150 10140 10139 10136 10136 10138 10138 10136 10134 10132 10134 10133 10131 10132 10131 10129 10129 10129 10128 10128 10127 10126 10128 10129 10127 10122 10116 10110 10108 10108 10108 10107 10107 10106 10106 10109 10112 10112 10114 10116 10116 10118 10119 10119 10120 10121 10121 10122 10122 10123 10127 10132 10135 10138 10142 10146 10148 10150 10150 10151 10153 10155 10157 10156 10155 10158 10162 10164 10166 10168 10170 10171 10172 10174
10152 10143 10139 10140 10137 10131 10131 10131 10132 10141 10151 10144 10130 10125 10123 10118 10117 10120 10119 10118 10118 10118 10119 10118 10116 10115 10112 10108 10109 10109 10109 10109 10109 10108 10108 10109 10109 10108 10105 10100 10095 10092 10092 10090 10090 10088 10086 10089 10093 10093 10093 10095 10095 10096 10100 10103 10105 10106 10104 10102 10101 10102 10106 10112 10114 10117 10122 10125 10127 10129 10130 10132 10134 10137 10140 10141 10140 10141 10144 10146 10149 10153 10155 10156 10157 10158
10137 10127 10122 10126 10125 10116 10114 10121 10127 10126 10125 10120 10112 10108 10106 10103 10102 10100 10098 10101 10104 10105 10105 10104 10101 10098 10094 10089 10087 10089 10091 10092 10090 10090 10091 10090 10090 10090 10090 10088 10083 10079 10078 10076 10075 10073 10071 10071 10074 10074 10074 10075 10073 10073 10077 10080 10084 10088 10087 10082 10080 10082 10088 10093 10095 10098 10101 10104 10107 10109 10110 10112 10115 10118 10122 10124 10125 10126 10127 10128 10131 10135 10138 10141 10142 10143
10124 10116 10105 10108 10114 10105 10097 10110 10122 10111 10098 10096 10095 10090 10088 10091 10091 10083 10078 10083 10090 10092 10090 10085 10082 10081 10077 10072 10070 10071 10073 10073 10072 10072 10072 10071 10073 10074 10074 10074 10071 10066 10064 10062 10060 10058 10055 10054 10057 10057 10057 10057 10054 10051 10054 10057 10061 10066 10068 10064 10061 10064 10070 10075 10077 10080 10082 10084 10087 10089 10091 10093 10096 10099 10102 10106 10108 10110 10112 10112 10114 10118 10121 10124 10126 10127
10111 10104 10088 10090 10100 10093 10086 10101 10108 10090 10077 10077 10077 10075 10075 10076 10076 10071 10066 10069 10075 10076 10072 10067 10064 10064 10060 10057 10056 10054 10054 10055 10055 10054 10054 10053 10056 10058 10057 10056 10055 10051 10048 10047 10044 10041 10039 10038 10040 10040 10040 10042 10039 10033 10033 10037 10040 10043 10047 10046 10043 10046 10053 10057 10059 10061 10064 10066 10068 10070 10072 10075 10078 10080 10083 10086 10090 10092 10095 10097 10099 10101 10103 10106 10109 10111
10097 10087 10073 10074 10081 10077 10079 10093 10088 10068 10062 10064 10060 10063 10067 10062 10059 10058 10055 10057 10058 10056 10054 10050 10048 10046 10044 10042 10040 10038 10038 10039 10037 10037 10038 10038 10039 10041 10040 10037 10036 10033 10031 10029 10026 10024 10023 10023 10023 10023 10023 10025 10025 10018 10016 10020 10022 10021 10024 10026 10026 10028 10035 10040 10042 10043 10045 10047 10048 10050 10053 10056 10060 10062 10064 10068 10071 10074 10078 10081 10082 10084 10087 10089 10091 10093
10082 10074 10062 10056 10055 10056 10069 10082 10071 10051 10048 10050 10048 10054 10057 10050 10046 10045 10043 10042 10041 10038 10037 10036 10033 10031 10030 10026 10024 10023 10024 10025 10023 10021 10022 10023 10024 10023 10021 10018 10016 10014 10012 10011 10008 10007 10007 10007 10007 10007 10007 10009 10009 10004 10002 10005 10006 10002 10002 10005 10007 10010 10016 10023 10025 10026 10028 10029 10028 10029 10033 10036 10041 10045 10047 10050 10053 10056 10060 10064 10066 10068 10070 10072 10074 10076
10062 10061 10051 10036 10034 10046 10058 10061 10050 10037 10036 10040 10041 10043 10041 10035 10034 10034 10029 10026 10023 10021 10022 10021 10018 10017 10015 10012 10010 10009 10010 10012 10011 10007 10006 10009 10008 10006 10003 10000 9998 9997 9996 9994 9992 9991 9990 9990 9991 9992 9993 9993 9991 9988 9988 9990 9989 9985 9982 9984 9989 9992 9998 10005 10008 10009 10012 10013 10011 10010 10013 10016 10021 10025 10029 10032 10035 10038 10042 10046 10049 10052 10055 10056 10057 10060
10044 10044 10035 10017 10019 10038 10045 10040 10032 10024 10025 10032 10033 10028 10023 10020 10020 10020 10017 10012 10009 10007 10006 10005 10003 10002 10001 9998 9997 9996 9995 9997 9996 9992 9991 9993 9992 9991 9989 9986 9983 9983 9981 9978 9977 9976 9975 9974 9975 9975 9977 9976 9973 9971 9973 9975 9972 9967 9963 9965 9971 9975 9979 9985 9989 9992 9996 9998 9996 9995 9995 9997 10002 10006 10008 10012 10015 10018 10023 10028 10031 10035 10039 10040 10040 10043
10031 10028 10018 10005 10006 10019 10026 10025 10020 10014 10013 10019 10018 10012 10008 10006 10004 10003 10001 9998 9996 9994 9993 9991 9990 9989 9987 9984 9982 9980 9980 9981 9980 9978 9977 9977 9976 9975 9974 9972 9970 9969 9967 9963 9961 9961 9960 9960 9959 9959 9959 9959 9956 9954 9955 9956 9954 9950 9947 9949 9954 9957 9960 9964 9968 9974 9980 9981 9980 9981 9981 9982 9986 9989 9990 9993 9996 9998 10003 10009 10012 10016 10020 10022 10024 10026